GFSWCAN_850_thetae_159.txt.gz
Theta_e
298 300 300 300 301 302 303 304 304 301 301 300 299 298 297 298 297 297 297 297 296 296 296 296 296 295 295 295 295 294 295 296 298 299 300 299 301 300 299 299 301 303 304 303 302 303 302 299 300 300 301 301 301 301
297 297 298 299 299 299 300 301 300 300 301 300 300 299 298 297 297 297 298 298 297 297 297 296 295 295 295 295 295 294 295 295 296 298 299 300 301 299 299 300 298 301 301 301 301 302 299 298 300 301 301 301 299 300
296 297 297 297 297 298 298 299 299 300 300 300 300 301 300 299 299 299 299 297 297 297 297 296 295 295 295 295 294 295 295 296 296 296 299 300 301 299 301 299 297 298 297 301 300 300 299 299 300 302 301 300 299 300
294 294 294 294 295 296 296 297 298 298 300 301 301 300 301 300 299 299 300 298 297 296 294 294 294 294 294 294 294 295 296 296 297 297 298 300 300 299 300 299 298 298 298 298 298 297 299 300 300 302 301 299 299 298
294 294 294 295 295 295 295 295 296 296 299 299 299 299 299 299 301 300 300 298 297 296 294 294 294 294 294 294 294 295 296 296 297 298 299 298 298 298 299 298 297 297 297 299 299 298 299 299 300 300 300 299 298 298
293 294 294 294 294 294 295 294 295 295 295 300 299 297 299 299 299 297 297 296 297 297 295 291 293 294 294 294 295 295 295 296 298 298 298 298 297 298 298 295 296 300 299 300 299 300 300 300 299 299 299 298 298 298
293 293 293 293 293 295 294 295 295 295 294 299 298 298 300 298 298 296 294 293 294 296 295 292 292 295 295 295 295 295 296 297 297 297 298 297 297 298 292 296 295 297 299 300 300 299 299 299 298 298 297 297 298 297
292 292 293 294 295 293 295 296 296 295 295 297 298 299 299 298 295 295 294 294 294 294 293 288 291 292 294 297 296 295 296 296 296 296 296 296 296 297 294 296 296 297 296 297 297 297 297 298 297 297 297 297 297 297
292 292 294 294 293 294 295 295 296 296 296 298 298 297 296 296 296 295 294 295 294 293 293 293 290 291 295 296 296 296 296 296 296 297 297 297 296 297 297 297 297 297 297 297 298 298 298 298 298 299 299 298 297 298
291 292 294 293 294 295 296 296 296 296 297 297 296 294 293 293 293 293 293 294 294 294 293 291 293 290 294 297 296 297 297 297 296 296 297 298 297 297 298 298 299 299 298 297 297 297 297 297 298 299 299 299 299 299
291 292 293 292 294 295 295 296 297 297 295 294 293 293 293 294 293 293 294 294 294 294 293 294 293 294 294 295 295 295 290 288 296 294 299 299 298 297 300 300 301 302 302 301 300 298 299 298 298 298 299 299 299 299
291 292 293 293 294 296 296 296 296 294 294 292 292 293 294 293 292 293 285 288 291 294 292 293 293 293 294 294 294 292 293 295 296 295 299 298 298 299 300 300 300 302 302 303 303 302 301 301 301 300 299 299 299 300
291 292 292 293 294 295 296 295 294 294 292 292 292 291 292 290 288 287 284 290 289 292 292 293 294 294 293 293 292 294 296 296 295 298 297 297 298 299 298 299 298 298 299 301 303 303 301 301 301 300 300 300 300 299
291 292 292 292 293 295 294 294 293 292 291 291 291 286 283 285 287 283 285 289 292 293 293 294 294 294 294 293 292 295 293 293 297 297 298 296 298 299 299 298 297 297 297 299 301 303 302 301 301 301 301 301 300 300
292 292 293 292 293 294 294 294 292 291 292 292 291 285 286 288 288 289 289 290 293 294 295 295 295 294 294 294 295 293 295 295 295 296 295 296 299 298 297 298 298 299 298 299 301 301 301 302 301 302 302 301 301 301
292 291 292 292 292 293 294 293 292 292 292 293 290 288 288 288 285 289 290 291 292 292 294 295 290 294 294 291 291 295 295 296 296 295 297 297 297 297 297 298 298 298 299 300 301 300 301 304 303 302 303 302 302 302
291 291 291 291 291 293 293 292 291 291 292 291 290 291 290 290 291 292 292 293 295 295 294 296 294 290 291 296 294 295 296 297 295 298 296 296 296 296 297 298 298 298 298 297 298 298 301 302 304 303 303 303 303 302
292 291 291 291 291 293 292 291 292 292 289 291 289 291 291 291 292 293 293 295 296 296 295 294 293 295 296 297 297 295 296 297 297 296 295 294 294 296 297 298 298 297 297 297 298 300 301 303 304 304 303 303 304 305
291 291 291 291 291 293 292 291 291 290 290 291 291 291 291 291 292 292 292 293 294 295 295 293 293 294 295 293 295 295 295 295 294 293 294 295 297 297 297 297 297 297 297 297 298 301 301 302 303 303 303 303 302 304
291 291 291 291 292 292 292 291 291 291 288 291 291 290 291 292 292 292 292 292 293 293 293 291 293 293 293 293 293 293 293 293 293 293 295 297 297 297 297 297 297 297 297 297 298 299 300 302 302 302 303 303 303 302
292 292 292 291 292 291 291 291 291 291 290 290 291 291 291 291 291 292 292 292 292 293 293 294 294 293 293 293 293 294 293 294 294 295 296 297 298 297 297 296 296 296 297 297 300 299 298 299 300 301 302 302 303 303
292 292 292 291 292 291 291 291 290 290 290 290 291 292 291 290 291 292 292 292 292 293 293 293 293 293 293 293 293 294 294 295 295 296 297 297 298 297 297 297 296 296 297 299 300 299 299 298 299 299 301 302 303 303
292 292 291 291 290 289 289 290 291 290 289 286 289 288 285 288 292 292 292 292 293 293 293 293 293 293 293 293 294 294 294 295 296 297 298 298 297 297 297 297 297 298 298 298 298 298 298 298 299 299 299 300 302 303
291 291 291 290 289 287 289 290 289 289 289 288 288 284 286 287 291 291 292 292 294 293 293 292 292 293 293 294 294 296 295 296 297 298 298 297 296 297 298 298 298 297 297 297 298 298 297 297 298 298 299 299 301 303
291 289 290 285 288 288 289 288 287 289 283 289 288 283 285 290 287 289 290 291 292 292 292 293 294 294 295 296 296 297 297 298 298 297 296 296 297 298 298 298 297 297 297 298 298 296 295 296 296 297 297 299 300 302
283 286 285 282 286 286 288 289 288 290 290 287 289 291 290 289 289 288 290 293 294 295 295 296 296 297 297 297 297 298 298 297 297 297 297 296 298 299 298 296 296 297 298 298 298 297 296 296 296 297 298 298 299 301
281 281 287 287 289 289 289 290 290 290 291 290 289 291 289 287 289 291 294 294 294 295 296 296 296 298 297 298 298 297 297 297 298 297 297 296 296 297 296 296 297 296 297 298 298 298 297 298 298 298 298 298 300 301
288 287 288 289 289 290 287 286 289 292 292 293 293 293 291 292 292 293 295 296 296 296 296 295 296 297 297 298 298 297 297 297 297 297 297 296 296 296 296 296 296 296 297 298 298 298 298 297 297 298 298 299 300 301
289 290 290 286 291 291 292 293 293 294 294 294 294 294 293 294 295 295 295 295 295 295 295 295 295 295 295 296 296 297 297 297 296 296 296 295 296 296 296 296 296 296 297 297 298 298 298 297 297 298 299 299 300 301
290 292 292 293 289 291 293 292 293 293 294 294 294 294 294 294 295 295 295 295 295 295 294 294 294 295 295 294 294 294 294 294 295 295 295 295 295 296 296 296 296 296 297 297 297 299 299 298 297 298 299 299 300 300
293 293 293 293 294 293 293 293 293 294 294 293 294 294 294 294 294 294 293 293 294 294 294 294 294 294 293 293 293 293 293 293 293 293 294 294 294 295 295 296 296 296 296 297 297 298 299 298 298 298 298 299 300 300
292 293 294 293 292 291 292 292 292 292 292 292 292 292 292 292 292 292 292 293 293 293 293 293 293 292 292 293 292 293 293 293 293 293 293 294 294 294 295 296 296 297 296 296 297 298 299 299 299 298 298 299 299 300
290 291 290 289 289 291 290 290 291 290 290 291 291 291 291 292 292 291 292 292 292 292 292 292 292 292 292 292 291 291 292 292 292 292 292 293 294 294 294 295 296 297 297 296 296 297 299 300 299 299 299 298 298 300

GFSWCAN_850_thetae_162.txt.gz
Theta_e
297 297 297 297 300 302 301 302 302 303 304 303 304 302 300 299 298 297 296 296 296 296 296 295 296 296 296 296 297 296 296 297 297 299 301 301 301 300 301 300 300 301 302 303 302 304 304 303 302 302 303 304 303 302
296 296 296 296 298 298 299 300 300 303 306 302 302 301 300 299 299 298 298 297 297 296 297 296 296 296 296 296 295 295 296 296 296 298 299 300 300 301 301 301 301 301 301 302 304 304 303 301 302 302 303 302 301 301
295 295 296 296 296 297 298 298 298 300 300 301 300 301 300 300 299 298 299 298 297 297 297 296 296 296 296 296 295 296 296 295 295 296 298 299 301 301 301 301 301 301 301 302 303 303 303 302 301 302 303 302 301 301
294 294 295 295 295 295 296 296 297 297 298 299 300 300 300 300 300 299 299 298 297 297 298 298 296 296 295 294 294 295 295 296 296 296 297 298 301 300 300 300 300 301 301 301 302 302 302 302 301 301 302 302 301 300
293 293 294 294 295 295 295 295 295 296 296 297 299 300 300 300 300 300 299 298 298 297 298 297 294 294 294 294 294 294 295 296 296 296 298 299 299 300 300 300 300 300 301 301 302 302 302 302 302 301 301 301 301 300
292 293 293 294 294 294 294 294 294 294 295 295 296 298 299 300 299 298 297 296 298 297 296 297 294 293 293 293 294 295 295 295 295 296 298 298 299 299 300 300 299 298 300 300 301 301 300 300 301 301 300 299 299 299
293 293 293 293 293 293 293 294 295 295 295 295 295 295 300 298 299 298 297 297 298 296 294 296 296 295 295 295 295 295 295 296 296 296 298 297 298 298 299 300 298 298 297 298 299 300 300 300 300 299 299 299 298 298
292 292 293 293 293 294 294 294 295 295 296 296 295 295 298 299 298 297 295 296 296 296 294 295 295 294 293 297 297 296 297 295 297 298 298 298 298 298 299 298 298 298 298 298 297 297 298 298 298 298 298 298 298 298
292 292 292 293 294 294 294 294 296 296 296 296 296 296 297 296 295 294 293 294 296 293 294 293 295 295 294 297 297 295 296 297 297 297 297 298 299 299 299 298 298 298 299 299 299 299 298 298 298 298 298 298 298 298
292 292 292 293 293 293 294 294 296 296 296 296 295 296 294 295 294 295 295 294 293 293 293 294 294 296 296 297 297 298 297 299 299 298 298 298 298 297 297 297 299 300 301 302 301 301 300 299 299 299 299 299 299 299
292 292 293 294 293 293 295 295 296 297 297 295 293 293 294 294 293 293 294 294 293 295 293 294 294 295 294 295 298 297 298 298 297 298 298 299 299 299 299 300 301 301 301 301 302 302 301 300 300 300 300 300 299 299
292 292 293 293 292 294 295 297 296 296 295 293 293 294 294 293 293 294 294 293 295 296 294 295 295 294 294 295 296 295 297 296 297 297 299 299 299 299 299 300 300 299 299 300 301 302 303 302 302 302 302 301 300 300
292 292 292 293 292 295 297 297 295 294 293 293 293 292 292 291 292 293 293 294 294 294 294 294 295 295 294 294 296 297 297 296 297 297 298 298 298 300 300 299 299 298 298 298 298 300 302 303 303 301 301 301 301 300
292 292 291 292 293 294 293 294 292 292 291 292 291 291 292 292 293 293 294 295 294 294 294 295 295 295 295 295 297 297 297 297 298 297 297 298 299 299 299 298 297 298 298 298 298 300 301 301 301 301 301 301 300 300
292 292 292 292 293 294 293 292 291 291 292 292 291 292 290 290 289 290 290 291 292 294 295 296 296 296 296 296 296 296 296 297 297 297 297 298 299 298 297 297 298 298 298 298 298 300 300 300 301 300 301 301 300 300
292 292 291 292 292 294 293 292 291 291 292 292 290 291 289 291 290 289 290 292 294 295 295 295 295 295 296 295 295 297 297 296 297 298 298 298 297 297 296 296 297 298 297 297 297 297 298 300 300 300 301 301 300 300
292 291 291 291 293 293 293 292 291 291 291 291 292 291 291 292 293 292 291 293 291 293 296 296 297 295 295 296 295 297 296 297 298 298 297 296 295 294 294 295 297 297 297 297 297 297 297 300 300 301 302 301 302 301
291 291 291 292 292 293 292 291 292 290 290 290 293 291 291 291 292 292 292 293 294 295 295 296 294 296 297 297 297 298 297 298 297 297 294 293 293 294 297 297 297 297 297 297 297 297 299 300 301 302 301 302 302 303
291 291 291 292 291 292 292 291 291 290 290 290 291 291 291 291 292 292 292 294 295 295 295 294 295 296 296 297 297 297 296 295 294 294 293 293 295 297 297 297 296 297 297 297 297 297 298 300 301 301 301 302 302 302
292 291 291 291 291 292 292 291 290 289 291 291 290 290 291 291 291 291 292 292 294 294 294 295 295 295 294 294 293 293 293 293 293 294 294 295 296 297 297 297 296 296 296 296 297 299 298 298 299 299 300 301 302 302
292 291 291 291 292 291 291 291 290 290 290 290 290 290 291 291 291 292 292 291 292 293 294 294 295 293 293 293 293 293 293 293 293 293 294 295 296 297 297 297 297 296 296 296 297 299 299 299 298 298 299 299 301 302
291 291 291 291 291 291 291 291 290 290 290 290 291 291 292 292 292 292 291 292 293 293 293 293 292 292 292 293 293 293 293 293 294 294 295 295 296 297 297 296 297 297 297 298 298 298 298 298 298 298 298 298 298 301
291 291 291 291 290 289 289 290 290 290 290 289 290 291 292 292 292 291 293 293 293 293 292 292 292 292 292 292 293 293 293 293 294 294 295 296 297 297 296 297 297 297 298 297 297 298 298 297 297 297 298 298 298 300
291 291 291 290 289 289 289 289 289 290 290 289 289 289 291 291 291 292 293 293 293 292 292 292 292 292 292 292 293 293 295 295 295 295 296 297 297 296 297 298 298 297 296 297 297 298 298 296 296 295 296 298 298 299
290 289 290 287 287 289 289 289 289 289 287 290 289 289 291 290 293 292 292 292 292 291 291 292 292 292 293 294 296 296 296 297 297 298 297 296 296 297 298 298 296 296 296 297 297 297 298 297 295 295 296 296 298 299
285 286 287 286 288 288 289 289 289 290 290 289 290 290 290 292 290 291 292 293 292 292 295 295 296 296 296 297 297 297 298 298 297 296 297 297 296 296 297 297 296 296 296 296 297 297 298 297 297 296 297 297 298 298
284 285 286 287 288 289 289 290 290 291 291 290 291 292 291 291 291 292 292 293 294 294 295 296 296 296 297 297 297 297 297 297 297 297 297 297 297 296 297 297 296 296 295 296 297 297 298 297 297 297 297 297 298 298
287 287 289 288 288 289 288 290 291 292 292 292 293 293 292 292 293 293 294 295 295 295 295 295 296 297 297 297 297 297 297 297 297 297 297 296 296 295 296 296 296 296 296 296 297 297 298 297 296 296 296 297 298 299
289 288 289 286 290 290 291 292 293 292 293 293 293 294 294 293 294 294 295 295 295 295 295 295 295 295 295 295 295 296 296 296 296 296 295 295 295 295 295 295 295 295 296 296 296 297 297 297 297 297 297 298 299 300
290 290 290 290 289 291 292 292 292 292 293 293 293 293 294 294 294 294 295 294 294 294 294 294 294 294 294 294 294 294 294 294 294 294 294 294 294 294 294 294 295 295 296 296 296 296 297 298 298 297 298 298 299 300
291 291 292 293 293 293 293 293 293 292 293 293 293 293 293 294 293 293 293 293 293 293 293 293 293 292 292 293 293 293 293 293 293 293 293 293 293 293 293 294 294 296 296 296 296 296 296 298 298 298 298 298 299 299
292 293 294 294 293 291 291 291 291 292 291 291 291 292 292 292 292 291 292 292 292 292 292 292 292 292 292 292 292 292 292 292 292 292 292 292 292 292 293 293 294 295 296 296 296 296 296 297 298 298 297 298 299 299
289 290 290 289 290 291 290 290 290 290 290 291 290 290 291 291 292 291 291 291 291 291 292 292 292 292 292 292 291 291 292 291 292 291 291 290 290 291 292 292 294 295 296 297 296 296 297 297 299 299 299 298 298 299

GFSWCAN_850_thetae_165.txt.gz
Theta_e
297 298 297 297 297 297 297 299 303 304 304 302 303 302 301 302 301 298 298 296 297 298 298 297 297 298 298 299 301 298 298 297 299 299 300 301 302 301 301 301 301 301 303 303 303 304 303 302 303 302 305 306 306 305
297 297 296 295 295 295 297 298 299 300 300 301 302 303 301 303 301 298 298 297 297 298 298 297 297 298 298 298 298 297 298 298 298 299 299 299 300 300 300 300 301 303 302 302 304 302 303 303 303 303 303 304 304 303
296 296 295 295 296 297 296 297 298 298 298 300 301 302 301 301 301 300 298 298 297 298 297 297 297 298 297 297 297 297 297 297 296 297 298 299 300 301 302 301 301 301 301 303 302 302 303 303 302 303 303 302 302 302
294 294 294 295 295 295 296 296 296 297 297 297 299 300 301 301 300 300 299 299 297 297 297 298 298 297 298 298 297 297 297 297 297 297 297 299 299 300 301 301 301 300 300 301 303 303 302 302 302 302 303 303 303 303
293 293 293 293 294 294 295 295 295 296 296 296 296 297 298 300 300 300 300 299 298 297 299 298 297 297 298 298 298 297 296 296 297 297 297 298 298 299 300 301 300 300 301 301 302 302 302 303 302 303 302 302 303 303
293 293 292 293 293 294 294 294 295 295 295 295 295 296 297 298 299 299 298 299 298 298 297 298 297 296 296 296 296 296 296 296 296 297 296 296 297 299 300 300 299 299 299 299 300 300 300 301 301 302 302 302 301 301
292 292 293 293 294 294 294 294 294 294 295 295 295 294 295 296 299 298 297 298 298 298 296 297 297 295 295 295 295 296 296 296 296 297 297 297 298 299 300 299 298 298 299 299 299 299 299 300 300 301 301 300 300 300
293 293 293 293 293 293 294 294 294 294 294 294 295 295 295 296 298 297 298 297 298 296 295 297 297 295 295 297 297 296 296 296 296 297 298 298 298 299 300 298 298 298 299 299 300 300 300 299 299 299 299 299 299 299
292 293 293 293 293 293 293 294 294 294 294 295 295 295 296 296 296 296 298 297 296 295 296 296 297 296 295 297 297 297 297 298 297 299 299 299 299 300 299 299 298 298 299 300 301 302 302 302 301 300 300 299 299 299
291 292 292 293 293 293 293 293 294 293 295 296 296 295 295 295 296 295 295 295 295 294 295 296 295 297 296 297 297 298 297 299 299 299 298 300 299 298 298 298 298 298 299 301 302 302 302 303 303 302 301 301 300 300
292 292 293 293 293 293 293 293 293 296 295 296 294 294 294 295 294 293 295 296 294 295 295 294 294 296 296 298 298 298 299 300 299 299 299 299 299 299 298 298 299 301 302 301 302 302 300 302 303 304 303 302 302 301
292 292 292 293 292 292 292 293 294 296 295 294 294 295 294 292 293 295 295 295 295 295 295 295 295 295 295 295 297 298 298 298 298 299 299 298 298 299 299 299 301 302 301 300 300 300 301 301 302 303 303 304 304 304
292 292 292 293 291 292 295 295 296 295 294 294 294 293 294 293 295 294 294 296 296 296 296 296 296 296 295 296 297 298 297 298 298 298 298 298 298 298 298 300 301 300 299 299 299 299 299 299 301 302 302 303 304 303
292 292 292 292 292 295 295 296 294 294 294 292 293 293 294 293 294 295 295 296 296 296 296 296 295 296 296 296 298 297 298 298 298 297 297 298 298 298 299 300 299 299 299 299 299 299 300 300 301 302 300 300 303 303
292 291 292 291 292 293 293 292 293 293 292 293 294 294 293 294 294 294 295 295 296 296 296 296 296 296 296 297 297 297 297 297 297 296 297 297 299 300 299 298 298 298 298 298 299 299 299 299 300 299 300 300 302 303
291 291 292 291 292 293 292 292 291 291 292 293 292 294 293 294 293 293 294 296 296 296 296 297 296 296 297 296 297 297 296 296 296 297 298 300 300 299 298 297 296 296 297 298 298 298 298 297 297 299 300 301 302 301
291 292 291 292 293 293 292 291 291 291 292 293 294 293 294 295 295 294 294 295 296 296 297 297 296 296 297 296 295 296 296 297 296 296 299 299 298 297 296 295 296 297 297 298 298 298 297 297 299 300 299 301 301 301
292 292 291 292 292 293 291 291 291 291 293 292 295 293 294 294 294 294 294 294 295 295 296 297 297 297 297 296 296 297 297 297 298 298 298 298 295 295 295 296 297 297 297 297 297 297 297 297 299 300 300 300 301 301
292 291 291 292 292 292 292 291 291 292 293 292 292 292 293 294 294 294 295 294 295 295 296 296 296 296 296 296 297 297 297 296 295 296 295 295 295 295 296 297 297 297 297 297 297 297 297 299 299 299 300 300 300 301
291 291 291 292 291 291 291 290 290 292 293 293 292 292 293 294 293 293 294 295 295 296 296 296 296 295 295 296 296 295 294 294 294 295 295 295 296 297 298 298 298 297 297 297 296 297 299 299 299 299 299 299 300 301
292 291 291 291 292 291 291 290 290 292 292 292 292 292 293 292 293 293 294 294 294 294 295 295 296 296 296 295 295 294 293 294 294 294 294 295 295 296 296 298 298 297 297 297 297 298 299 300 299 299 299 299 300 299
292 291 291 291 291 291 291 291 292 291 292 292 292 292 293 294 294 293 293 293 294 294 294 294 294 295 294 294 294 294 294 294 294 294 294 294 295 296 297 298 297 297 297 298 298 299 299 299 297 297 298 298 299 299
291 291 291 291 291 290 290 290 292 292 292 291 290 292 293 294 294 293 294 294 294 293 293 293 293 293 293 293 293 293 293 293 293 294 295 295 295 296 298 297 297 297 298 298 298 298 298 298 297 296 295 297 298 298
291 291 291 290 291 291 289 291 291 291 291 290 291 292 293 293 293 293 294 294 294 294 294 293 293 293 293 293 293 293 294 294 295 295 296 296 297 298 297 297 298 297 297 297 297 297 297 297 297 296 295 296 297 298
291 289 290 289 289 290 290 291 290 290 290 291 291 291 293 292 294 293 293 293 293 293 293 293 293 293 293 293 294 295 296 296 296 297 298 298 297 297 297 298 298 297 297 297 296 296 297 297 297 297 296 296 297 298
290 287 290 290 290 290 291 290 290 291 291 291 292 292 292 293 293 293 293 293 293 293 293 294 296 296 296 297 297 297 297 297 297 297 297 297 297 297 296 297 298 298 296 296 296 296 297 297 298 297 297 297 297 297
289 289 288 288 290 290 291 291 291 292 292 291 292 293 293 292 293 293 293 293 294 295 294 294 295 296 296 297 297 297 297 297 297 296 297 297 297 297 296 296 297 296 296 295 296 295 295 296 297 297 297 296 297 297
290 290 291 289 290 291 290 292 292 292 292 292 293 293 292 293 293 294 295 294 295 295 295 295 295 296 297 297 296 297 297 297 297 297 297 297 296 295 295 295 295 295 295 295 296 296 296 296 297 297 297 296 296 296
291 289 290 288 291 291 291 292 292 292 293 293 294 294 294 294 294 294 295 295 295 294 294 294 294 294 295 295 295 295 295 295 295 295 295 295 294 295 294 294 294 294 295 296 296 296 296 297 297 296 296 296 296 298
291 290 291 290 290 291 292 292 292 293 293 292 293 294 294 294 294 294 294 294 294 293 293 293 293 294 294 293 293 293 293 293 293 293 293 293 293 293 293 293 293 294 295 295 295 296 296 297 298 297 296 296 297 298
291 291 292 292 293 293 292 293 292 292 293 292 293 293 293 294 293 293 293 293 293 293 293 293 292 292 292 292 292 292 292 292 292 292 292 292 292 292 292 292 292 293 294 295 295 296 296 297 297 296 296 296 298 298
292 292 293 294 294 292 292 291 292 293 292 292 292 292 292 292 293 291 291 292 292 291 291 291 292 292 291 292 292 291 291 291 291 291 292 291 290 291 291 292 291 292 294 295 296 296 296 297 297 297 297 297 297 298
291 291 291 291 292 292 291 292 292 292 292 292 292 291 291 292 293 291 291 291 291 291 291 291 291 291 291 291 291 291 291 291 291 290 290 290 290 290 291 291 291 292 294 295 295 296 296 297 297 297 298 298 297 297

GFSWCAN_850_thetae_168.txt.gz
Theta_e
300 299 298 298 298 296 296 296 297 298 304 306 306 303 301 301 301 300 299 296 298 296 297 297 297 297 297 298 302 299 299 298 299 298 300 300 300 301 301 300 300 301 301 301 303 302 302 303 304 304 304 304 305 304
299 299 298 298 297 296 297 297 297 297 299 300 300 300 300 302 302 301 298 298 297 298 297 297 297 297 298 298 300 298 300 298 299 299 300 298 299 298 298 298 300 301 301 303 303 302 302 302 303 302 302 303 304 304
296 295 295 297 297 295 295 295 296 298 298 298 298 299 301 302 302 302 299 298 297 298 298 298 298 297 298 299 298 299 298 298 298 297 299 300 297 299 299 299 299 300 301 300 300 301 301 302 303 303 302 303 303 302
293 294 295 295 295 295 296 296 296 295 296 297 297 297 299 300 301 301 299 299 298 297 298 298 297 297 297 298 298 298 298 297 297 297 298 297 297 298 298 299 299 299 299 299 299 300 302 303 302 302 302 302 303 303
293 293 293 293 293 294 294 294 295 295 296 296 296 296 296 297 298 300 299 299 299 297 298 298 299 298 298 298 298 298 298 298 297 297 297 296 296 297 297 298 298 299 299 299 300 300 302 301 301 302 302 303 302 303
293 293 293 293 293 293 294 294 294 295 295 295 295 295 295 296 298 298 298 299 299 298 298 300 298 298 299 298 298 298 298 297 297 298 298 297 296 297 298 298 299 299 299 298 299 299 299 299 299 299 300 302 302 302
292 292 292 293 294 294 294 294 294 294 294 295 295 295 295 294 295 298 298 298 299 298 298 298 298 297 297 298 298 297 297 297 297 297 297 296 297 298 299 298 298 298 298 298 298 299 300 300 299 299 299 300 301 300
293 293 293 293 293 293 293 294 294 294 294 294 294 294 294 295 295 297 297 298 297 297 297 298 298 295 296 295 296 296 296 296 296 297 296 297 297 297 298 298 298 298 298 298 299 299 301 302 302 302 300 299 299 299
292 292 292 293 292 292 293 293 294 293 294 294 294 294 295 295 295 295 296 297 296 296 296 297 297 298 295 297 297 296 296 297 297 297 296 297 298 299 299 299 298 298 298 298 298 300 302 301 301 303 302 301 300 300
291 292 292 292 292 293 293 293 293 293 294 294 293 295 295 295 294 296 296 294 295 295 295 298 297 297 296 298 298 298 297 297 297 297 298 298 298 299 299 298 298 298 298 298 298 300 302 302 300 302 303 303 303 301
292 292 292 292 292 293 293 293 293 293 293 294 295 295 294 294 294 295 295 296 294 295 294 296 296 296 296 297 298 297 298 297 296 298 298 299 297 298 298 298 298 298 298 298 299 301 302 302 301 301 301 303 303 304
292 292 292 292 292 293 293 292 292 292 293 294 295 294 294 294 293 295 295 295 295 296 295 295 295 296 296 297 298 297 298 298 297 299 299 298 297 298 298 299 299 299 300 302 301 301 299 298 298 299 299 300 302 302
292 292 292 292 293 292 291 292 294 294 294 294 294 293 294 294 295 295 294 295 296 296 295 295 295 296 295 296 297 297 295 297 297 297 297 296 298 298 299 298 299 300 301 300 299 299 299 299 299 300 299 300 302 301
291 292 291 292 292 291 292 296 295 294 295 293 293 293 294 293 295 296 295 296 296 297 296 296 296 296 296 296 297 297 297 297 297 297 296 296 298 298 298 299 300 300 300 299 299 299 299 299 300 300 300 301 300 301
291 291 291 292 291 291 292 293 294 293 293 293 294 293 293 295 295 296 296 296 297 296 296 296 296 297 296 297 297 297 297 296 297 296 295 299 299 299 299 299 299 298 298 297 297 297 298 298 298 298 298 298 298 299
291 291 291 291 291 292 292 293 292 292 292 293 293 294 294 295 295 294 296 297 297 297 296 297 296 296 295 297 297 296 296 296 295 296 298 299 300 299 299 298 297 296 296 296 296 297 298 298 298 297 297 298 300 299
291 291 291 291 291 292 291 291 291 291 293 294 295 293 294 294 294 295 296 296 297 297 296 296 293 294 296 294 295 296 295 295 297 297 297 298 299 299 298 296 295 295 296 297 297 297 297 298 297 297 297 300 299 299
291 291 291 291 292 292 291 291 290 291 293 293 295 294 294 295 295 294 295 296 296 296 296 295 296 295 294 294 296 296 298 297 296 296 297 298 298 298 296 295 295 297 297 297 297 297 297 297 297 297 299 299 299 299
290 291 291 292 292 292 292 291 291 293 293 293 293 293 294 294 295 294 295 296 295 296 296 296 295 296 295 295 296 296 297 297 296 295 295 295 295 295 295 295 297 297 298 298 297 297 297 296 298 299 299 299 299 299
292 291 291 292 292 291 291 291 291 293 294 293 292 293 294 294 294 295 295 295 295 295 295 294 295 295 295 295 296 296 295 294 294 294 294 294 295 295 295 297 297 297 298 297 297 297 297 298 299 299 299 299 299 299
292 291 292 291 292 291 291 291 291 293 292 293 292 293 293 293 293 294 295 294 293 294 295 295 295 295 295 295 295 295 295 295 294 294 294 294 294 294 295 295 296 298 298 297 298 298 298 299 299 298 298 297 297 298
292 291 292 291 291 291 291 291 292 292 293 292 292 293 293 293 293 294 294 294 294 294 294 294 295 295 295 295 295 294 294 294 294 294 294 293 294 294 295 296 297 298 297 297 298 299 298 298 297 297 297 296 296 296
292 291 291 291 290 291 290 291 292 292 292 291 290 292 293 294 294 294 294 294 294 294 294 294 294 294 293 293 293 293 293 293 293 293 293 294 294 295 295 296 298 297 297 298 298 297 297 296 296 297 297 296 295 295
291 291 291 291 291 290 290 291 292 292 291 290 290 291 293 294 293 293 294 294 294 294 294 293 293 293 293 293 293 293 293 294 294 294 295 295 296 296 297 297 297 297 298 297 296 296 296 296 296 296 297 297 296 296
291 289 290 288 290 290 290 290 291 291 290 291 291 290 292 292 293 293 292 293 293 293 293 293 293 294 294 293 293 293 295 296 296 296 297 298 298 297 297 297 298 298 298 297 296 296 295 296 296 295 296 297 297 297
290 288 290 290 290 291 291 291 290 291 291 291 292 292 292 293 292 293 293 293 293 293 293 293 293 294 295 296 297 297 297 297 297 297 297 297 297 297 297 296 296 298 298 297 296 295 295 295 296 295 295 297 297 296
288 287 289 290 291 291 291 291 291 292 292 291 292 292 292 289 291 292 293 294 294 295 295 294 294 295 296 296 297 297 297 297 296 296 297 297 297 297 296 296 296 297 296 295 295 295 296 295 296 295 295 296 297 297
290 291 290 290 291 291 290 292 291 292 292 292 293 292 291 292 293 295 294 295 295 295 295 295 295 294 296 296 296 296 296 297 297 297 297 296 296 296 296 295 295 295 295 295 295 295 295 295 295 295 296 296 296 297
291 291 290 286 291 291 291 292 292 292 293 293 293 293 293 294 294 294 294 294 295 295 294 294 294 294 294 294 294 294 294 294 295 295 294 295 295 294 294 294 293 293 293 293 294 295 295 295 295 296 296 296 296 295
291 291 291 290 288 290 292 291 292 293 293 293 293 292 292 293 293 293 293 294 294 294 293 293 293 293 293 293 292 292 293 292 293 293 292 292 292 292 292 292 292 292 292 292 293 295 296 296 296 296 297 296 295 296
291 291 291 291 291 292 291 292 292 292 292 292 292 292 293 293 293 293 293 293 293 292 292 292 292 292 291 291 292 292 292 292 292 291 291 291 291 290 291 291 291 292 291 291 293 294 295 296 296 296 297 296 296 296
292 292 292 292 293 293 292 292 293 293 293 293 292 292 293 293 293 291 291 292 291 291 291 291 291 291 291 291 291 291 291 291 290 290 291 291 290 290 290 291 291 290 291 292 293 294 296 296 296 296 297 297 296 296
292 292 292 292 292 293 291 291 292 292 292 293 292 292 292 293 293 290 291 290 291 291 291 291 291 291 291 291 291 291 290 290 290 290 290 290 289 290 290 290 290 290 291 292 293 294 295 296 296 296 297 297 297 296